SV4RJA-13 Weather Reports


time (UTC)temp
F
wind
direction
speed
knots
gust
knots
rain 1hr
in
rain 24hr
in
rain mn
in
humidity
%
barometer
mb
20260508064912 66 0.0 0.0 0.00 0.00 0.00 10 1018.6
20260508063912 66 0.0 0.0 0.00 0.00 0.00 10 1018.6
20260508062913 65 0.0 0.0 0.00 0.00 0.00 10 1018.6
20260508061912 66 0.0 0.0 0.00 0.00 0.00 10 1018.6
20260508060912 66 0.0 0.0 0.00 0.00 0.00 10 1018.2
20260508054912 64 0.0 0.0 0.00 0.00 0.00 10 1018.3
20260508053912 63 0.0 0.0 0.00 0.00 0.00 10 1018.8
20260508050912 63 0.0 0.0 0.00 0.00 0.00 10 1019.0
20260508045911 64 0.0 0.0 0.00 0.00 0.00 10 1018.2
20260508042912 63 0.0 0.0 0.00 0.00 0.00 10 1017.4
20260508041912 62 0.0 0.0 0.00 0.00 0.00 10 1017.2
20260508040912 62 0.0 0.0 0.00 0.00 0.00 10 1017.0
20260508035913 62 0.0 0.0 0.00 0.00 0.00 10 1017.0
20260508034912 63 0.0 0.0 0.00 0.00 0.00 10 1016.8
20260508033911 62 0.0 0.0 0.00 0.00 0.00 10 1016.8
20260508032911 61 0.0 0.0 0.00 0.00 0.00 10 1016.8
20260508031912 61 0.0 0.0 0.00 0.00 0.00 10 1016.8
20260508030912 63 0.0 0.0 0.00 0.00 0.00 10 1016.5
20260508025913 63 0.0 0.0 0.00 0.00 0.00 10 1016.5
20260508024913 62 0.0 0.0 0.00 0.00 0.00 10 1016.7
20260508023912 62 0.0 0.0 0.00 0.00 0.00 10 1016.7
20260508021912 62 0.0 0.0 0.00 0.00 0.00 10 1016.7
20260508015912 61 0.0 0.0 0.00 0.00 0.00 10 1016.9
20260508014912 62 0.0 0.0 0.00 0.00 0.00 10 1016.9
20260508013912 61 0.0 0.0 0.00 0.00 0.00 10 1016.9
20260508012911 61 0.0 0.0 0.00 0.00 0.00 10 1016.9
20260508005913 63 0.0 0.0 0.00 0.00 0.00 10 1016.9
20260508004912 63 0.0 0.0 0.00 0.00 0.00 10 1017.0
20260508003912 62 0.0 0.0 0.00 0.00 0.00 10 1017.1
20260508001911 62 0.0 0.0 0.00 0.00 0.00 10 1017.2
20260508000911 62 0.0 0.0 0.00 0.00 0.00 10 1017.4
20260507235912 62 0.0 0.0 0.00 0.00 0.00 10 1017.5
20260507234912 63 0.0 0.0 0.00 0.00 0.00 10 1017.6
20260507233913 62 0.0 0.0 0.00 0.00 0.00 10 1017.6
20260507232913 62 0.0 0.0 0.00 0.00 0.00 10 1017.9
20260507231912 62 0.0 0.0 0.00 0.00 0.00 10 1017.9
20260507230912 62 0.0 0.0 0.00 0.00 0.00 10 1018.1
20260507224912 63 0.0 0.0 0.00 0.00 0.00 10 1018.3
20260507223912 63 0.0 0.0 0.00 0.00 0.00 10 1018.2
20260507222912 62 0.0 0.0 0.00 0.00 0.00 10 1018.2
20260507221913 63 0.0 0.0 0.00 0.00 0.00 10 1018.2
20260507220913 62 0.0 0.0 0.00 0.00 0.00 10 1018.2
20260507215912 63 0.0 0.0 0.00 0.00 0.00 10 1018.2
20260507214913 63 0.0 0.0 0.00 0.00 0.00 10 1018.3
20260507213912 63 0.0 0.0 0.00 0.00 0.00 10 1018.5
20260507212913 64 0.0 0.0 0.00 0.00 0.00 10 1018.4
20260507211913 64 0.0 0.0 0.00 0.00 0.00 10 1018.6
20260507205913 64 0.0 0.0 0.00 0.00 0.00 10 1018.5
20260507204912 64 0.0 0.0 0.00 0.00 0.00 10 1018.5
20260507203912 64 0.0 0.0 0.00 0.00 0.00 10 1018.5
20260507202911 66 0.0 0.0 0.00 0.00 0.00 10 1018.4
20260507201911 66 0.0 0.0 0.00 0.00 0.00 10 1018.4
20260507200912 66 0.0 0.0 0.00 0.00 0.00 10 1018.4
20260507195912 66 0.0 0.0 0.00 0.00 0.00 10 1018.5
20260507194911 66 0.0 0.0 0.00 0.00 0.00 10 1018.5
20260507192912 65 0.0 0.0 0.00 0.00 0.00 10 1018.5
20260507191912 66 0.0 0.0 0.00 0.00 0.00 10 1018.3
20260507190912 65 0.0 0.0 0.00 0.00 0.00 10 1018.4
20260507185912 67 0.0 0.0 0.00 0.00 0.00 99 1018.2
20260507184913 67 0.0 0.0 0.00 0.00 0.00 96 1018.0
20260507183913 67 0.0 0.0 0.00 0.00 0.00 96 1017.8
20260507182912 67 0.0 0.0 0.00 0.00 0.00 97 1017.9
20260507181913 68 0.0 0.0 0.00 0.00 0.00 96 1017.9
20260507180913 68 0.0 0.0 0.00 0.00 0.00 96 1017.8
20260507175913 68 0.0 0.0 0.00 0.00 0.00 95 1017.7
20260507174913 69 0.0 0.0 0.00 0.00 0.00 93 1017.7
20260507173913 69 0.0 0.0 0.00 0.00 0.00 92 1017.6
20260507172913 69 0.0 0.0 0.00 0.00 0.00 92 1017.8
20260507171913 70 0.0 0.0 0.00 0.00 0.00 89 1017.9
20260507170912 70 0.0 0.0 0.00 0.00 0.00 86 1017.9
20260507163912 71 0.0 0.0 0.00 0.00 0.00 78 1017.8
20260507162913 72 0.0 0.0 0.00 0.00 0.00 78 1017.8
20260507161912 72 0.0 0.0 0.00 0.00 0.00 82 1017.8
20260507160913 72 0.0 0.0 0.00 0.00 0.00 83 1017.7
20260507155913 73 0.0 0.0 0.00 0.00 0.00 79 1017.6
20260507154913 72 0.0 0.0 0.00 0.00 0.00 79 1017.7
20260507153913 72 0.0 0.0 0.00 0.00 0.00 79 1017.6
20260507152913 72 0.0 0.0 0.00 0.00 0.00 78 1017.9
20260507151913 73 0.0 0.0 0.00 0.00 0.00 74 1017.9
20260507150920 74 0.0 0.0 0.00 0.00 0.00 74 1017.9
20260507144913 73 0.0 0.0 0.00 0.00 0.00 71 1017.9
20260507143912 72 0.0 0.0 0.00 0.00 0.00 74 1017.8
20260507142911 74 0.0 0.0 0.00 0.00 0.00 68 1017.8
20260507141912 74 0.0 0.0 0.00 0.00 0.00 72 1017.8
20260507140913 75 0.0 0.0 0.00 0.00 0.00 65 1017.7
20260507135912 75 0.0 0.0 0.00 0.00 0.00 65 1017.8
20260507132912 73 0.0 0.0 0.00 0.00 0.00 66 1017.7
20260507131912 74 0.0 0.0 0.00 0.00 0.00 65 1017.9
20260507130912 75 0.0 0.0 0.00 0.00 0.00 55 1017.9
20260507125913 76 0.0 0.0 0.00 0.00 0.00 58 1018.0
20260507124912 78 0.0 0.0 0.00 0.00 0.00 50 1018.0
20260507123912 75 0.0 0.0 0.00 0.00 0.00 58 1018.3
20260507122912 74 0.0 0.0 0.00 0.00 0.00 64 1018.3
20260507121913 75 0.0 0.0 0.00 0.00 0.00 67 1018.1
20260507120912 75 0.0 0.0 0.00 0.00 0.00 67 1018.4
20260507115912 76 0.0 0.0 0.00 0.00 0.00 65 1018.5
20260507114913 75 0.0 0.0 0.00 0.00 0.00 64 1018.8
20260507113913 75 0.0 0.0 0.00 0.00 0.00 61 1019.1
20260507112913 76 0.0 0.0 0.00 0.00 0.00 54 1019.1
20260507111912 76 0.0 0.0 0.00 0.00 0.00 58 1019.2
20260507105912 72 0.0 0.0 0.00 0.00 0.00 68 1018.9
20260507104912 72 0.0 0.0 0.00 0.00 0.00 71 1018.7
20260507103912 72 0.0 0.0 0.00 0.00 0.00 73 1018.7
20260507102912 72 0.0 0.0 0.00 0.00 0.00 71 1018.4
20260507101911 72 0.0 0.0 0.00 0.00 0.00 64 1018.2
20260507100912 72 0.0 0.0 0.00 0.00 0.00 62 1018.5
20260507095913 74 0.0 0.0 0.00 0.00 0.00 59 1018.5
20260507094913 75 0.0 0.0 0.00 0.00 0.00 53 1018.6
20260507093913 77 0.0 0.0 0.00 0.00 0.00 49 1018.5
20260507092913 78 0.0 0.0 0.00 0.00 0.00 50 1018.4
20260507091913 79 0.0 0.0 0.00 0.00 0.00 50 1018.3
20260507090911 79 0.0 0.0 0.00 0.00 0.00 54 1018.3
20260507084912 77 0.0 0.0 0.00 0.00 0.00 57 1018.3
20260507083912 77 0.0 0.0 0.00 0.00 0.00 53 1018.3
20260507082911 77 0.0 0.0 0.00 0.00 0.00 52 1018.1
20260507080913 79 0.0 0.0 0.00 0.00 0.00 51 1018.1
20260507075911 79 0.0 0.0 0.00 0.00 0.00 48 1018.0
20260507073912 78 0.0 0.0 0.00 0.00 0.00 51 1017.7
20260507071912 78 0.0 0.0 0.00 0.00 0.00 54 1017.9
20260507070912 78 0.0 0.0 0.00 0.00 0.00 51 1018.0